Theta_e
347 353 358 359 361 363 363 364 364 364 364 365 366 366 366 365 368 367 367 367 367 367 366 366 365 364 363 365 364 364 364 365 364 362 362 361 360 362 362 363 361 353 360
347 354 360 362 362 364 365 364 363 365 365 365 365 366 363 363 366 367 366 367 366 366 365 365 365 364 364 364 364 362 363 366 366 363 363 362 360 360 361 362 362 358 360
350 354 359 365 366 363 365 364 364 365 365 365 365 366 365 364 363 365 367 365 365 365 363 363 362 363 361 362 363 363 363 361 361 356 360 355 357 362 362 362 361 360 360
353 353 356 367 365 366 366 366 365 363 363 365 365 366 365 364 364 363 364 363 364 364 362 360 361 363 363 362 362 362 361 363 352 343 342 350 351 359 358 358 358 357 357
354 354 362 367 367 367 366 367 367 366 365 364 363 363 363 363 363 361 363 362 362 364 361 359 360 361 363 363 363 360 356 357 359 348 337 349 348 355 356 357 357 359 361
355 359 366 368 368 366 365 365 364 365 363 362 361 361 360 359 359 361 361 361 361 363 361 359 358 362 362 360 359 358 356 356 359 349 351 353 347 357 358 358 361 361 360
354 357 360 367 368 367 364 365 363 364 363 361 359 359 361 360 360 358 357 359 360 360 361 361 358 358 359 357 358 356 356 355 354 353 351 351 353 360 356 357 356 357 357
353 353 357 365 366 365 365 365 366 362 361 362 361 361 358 356 356 356 356 356 356 359 360 360 360 359 360 359 360 357 355 351 348 349 349 352 359 362 358 356 357 358 359
353 354 356 357 362 365 367 366 363 362 361 358 359 356 353 352 350 352 355 352 355 356 358 358 359 359 358 357 357 356 356 356 352 347 343 353 361 362 362 360 357 355 357
353 352 355 358 358 360 359 365 363 361 359 359 358 352 350 348 343 344 349 350 352 354 356 356 357 357 357 357 357 357 357 356 352 352 352 350 359 361 361 359 359 359 357
347 349 351 351 358 356 361 362 362 361 357 356 355 352 349 344 343 347 348 348 349 351 356 356 356 357 357 357 358 359 356 349 344 355 354 355 358 359 359 361 359 359 359
344 346 348 349 349 354 354 361 360 358 353 353 353 349 349 348 346 345 349 352 350 351 354 357 358 358 359 353 352 357 344 347 343 347 350 358 360 357 354 360 361 361 359
346 345 347 351 353 353 353 355 359 359 356 351 345 348 348 348 350 347 346 346 349 349 350 352 352 353 352 351 350 354 351 349 351 351 353 358 360 357 356 358 359 361 359
345 347 347 353 362 356 358 352 356 358 354 349 346 350 349 346 348 346 344 339 343 343 349 353 348 356 353 351 348 352 352 351 349 347 350 360 359 359 357 356 357 359 360
345 346 347 355 361 359 354 351 353 355 354 357 351 350 348 345 348 348 350 355 352 349 351 349 351 349 349 350 350 350 348 353 351 349 351 361 358 360 359 358 357 358 359
347 346 348 351 360 360 359 351 356 356 359 356 353 355 352 350 352 348 354 352 352 352 352 351 352 352 350 351 350 349 350 352 347 350 354 355 360 358 361 360 359 359 359
345 348 349 351 355 360 363 356 357 358 358 355 350 346 356 356 351 350 351 349 350 352 352 351 350 351 351 349 349 348 349 351 352 353 355 353 355 360 358 362 361 362 363
347 352 353 349 353 357 360 363 360 360 356 352 351 352 350 348 355 353 349 349 352 351 354 351 350 348 346 346 346 347 344 345 346 352 355 355 352 351 359 360 361 362 363
348 356 353 355 352 358 364 365 364 362 361 360 359 355 357 352 352 355 356 355 351 350 350 349 351 350 345 344 346 344 344 347 348 348 352 356 351 353 354 359 360 361 362
355 359 361 359 365 367 363 367 365 362 362 360 360 359 361 360 360 358 357 357 355 349 350 353 349 349 351 349 344 340 346 344 347 348 349 350 349 353 355 352 357 358 363
355 358 361 365 370 364 361 361 354 355 362 362 361 364 360 360 362 358 357 357 357 352 352 350 351 350 348 351 346 345 345 350 345 349 349 349 349 352 350 355 356 356 356
353 359 363 366 372 367 365 365 362 362 359 360 361 361 365 364 363 361 360 357 359 354 352 354 348 347 350 347 343 342 338 341 344 344 345 348 348 350 350 356 354 353 356
354 359 364 368 371 370 370 370 368 367 363 362 365 360 362 366 365 361 360 360 361 361 353 357 355 350 345 345 347 341 337 334 340 346 345 344 347 347 347 352 353 353 354
350 357 367 370 373 373 376 369 365 362 359 362 362 365 364 364 365 365 362 361 361 359 357 357 356 354 350 346 346 348 348 347 338 334 348 350 355 348 348 348 351 352 350
348 350 361 372 375 377 373 374 370 363 363 358 359 361 361 362 366 365 363 361 358 358 359 359 358 356 357 352 348 345 348 348 346 342 337 345 347 351 351 349 350 348 351
349 353 359 368 372 373 371 373 371 367 365 362 359 358 361 359 361 364 362 363 361 360 360 360 359 359 356 355 355 350 345 343 345 343 340 341 341 345 347 353 350 350 352
Wind_Speed
7 6 5 5 9 13 15 15 16 15 14 13 13 13 13 13 13 14 13 13 12 12 13 13 13 13 13 15 15 15 16 17 18 18 16 14 11 8 9 14 17 14 15
10 10 10 8 11 13 13 14 14 14 13 12 12 12 13 12 14 13 12 13 13 14 14 14 15 14 13 13 14 13 14 14 15 17 16 15 14 14 13 16 17 14 15
16 14 11 9 14 14 13 14 13 13 12 11 10 11 10 12 12 12 12 13 14 14 15 14 13 13 13 13 12 11 12 15 15 13 11 9 9 13 14 15 14 15 14
11 14 14 12 15 14 14 12 13 13 12 10 9 9 10 10 10 10 11 10 12 13 13 13 12 13 12 11 9 8 10 14 17 8 5 5 10 11 12 13 12 13 13
14 16 16 16 15 14 14 12 12 12 10 10 9 8 9 9 9 8 10 9 10 14 13 12 10 11 11 11 9 4 4 6 14 11 6 4 7 9 10 12 11 10 12
8 19 16 17 15 15 14 13 12 12 12 9 9 10 10 10 9 10 8 9 8 11 12 11 9 10 10 9 7 3 1 5 9 7 9 12 10 11 9 9 13 13 12
13 17 16 16 14 13 13 12 12 11 11 11 13 15 15 15 13 10 7 6 9 10 8 11 10 7 9 9 7 4 2 5 7 4 8 10 10 13 10 11 12 12 11
14 17 15 15 14 13 13 12 12 14 14 16 17 18 17 16 13 12 7 4 5 6 6 7 7 8 6 6 6 5 3 4 2 5 2 9 14 14 12 11 10 11 10
21 16 14 14 12 13 12 12 13 14 17 18 17 14 15 13 10 9 9 5 2 3 5 5 6 5 5 6 8 7 6 7 3 1 4 5 14 14 13 11 11 10 10
11 18 13 13 12 11 10 13 15 15 17 18 18 17 11 11 3 3 5 2 1 2 3 4 5 6 8 9 10 11 12 10 5 4 5 4 15 15 14 11 11 10 10
13 15 17 15 13 12 12 11 14 18 17 16 14 14 10 3 4 6 7 6 5 3 5 6 7 8 10 12 13 11 6 4 7 3 4 11 16 16 15 13 12 11 10
12 13 14 16 13 14 12 13 12 12 8 6 5 8 4 5 5 6 5 9 8 8 9 10 11 11 12 8 7 11 3 6 6 9 7 16 17 16 16 14 12 11 11
10 6 11 8 10 11 11 8 5 5 5 3 3 6 3 3 3 3 4 4 2 8 5 9 9 7 10 8 8 8 6 9 7 4 10 17 16 16 17 16 15 13 13
9 11 13 12 9 10 7 2 9 6 6 5 4 5 5 4 5 5 5 6 6 5 7 7 4 4 5 7 5 3 11 8 6 2 4 13 15 16 17 18 17 15 14
11 9 7 9 10 7 8 6 5 5 6 5 6 8 6 5 5 5 6 4 4 5 5 6 5 5 4 7 4 4 6 5 1 2 4 13 13 15 17 17 18 17 17
10 11 12 10 9 5 9 12 5 4 5 6 5 6 9 5 4 4 4 5 4 4 6 6 5 4 4 4 5 5 6 2 3 7 3 7 14 14 15 17 17 17 18
10 13 11 9 12 8 6 8 6 5 2 3 4 3 5 6 6 5 5 6 4 4 7 6 7 6 4 5 7 5 5 6 8 7 7 7 8 14 15 16 17 17 17
9 9 9 11 13 10 7 5 5 5 5 6 5 6 7 6 7 5 5 6 6 5 5 5 5 6 5 5 7 4 6 9 9 6 5 4 5 5 11 17 16 17 19
17 10 12 9 10 13 8 6 6 7 6 6 4 7 9 10 9 8 6 6 7 4 3 6 5 6 4 6 6 6 8 6 5 7 6 5 11 8 5 15 21 19 21
16 12 9 9 7 8 8 5 4 5 5 5 3 5 8 6 8 7 7 8 5 4 6 7 5 3 5 5 6 7 5 8 7 6 6 9 8 11 14 12 10 11 20
16 14 12 7 8 7 6 6 4 5 5 4 5 9 8 7 8 7 6 7 6 5 6 2 2 5 5 3 3 5 6 10 10 4 8 6 7 9 9 11 6 6 9
13 15 14 11 9 7 6 6 5 4 6 6 7 7 6 9 8 7 8 7 5 4 6 7 5 2 4 3 3 3 3 6 9 9 8 10 13 10 8 12 13 15 10
7 10 12 11 11 9 8 4 4 4 2 4 4 5 7 8 9 8 8 8 5 4 6 7 7 8 4 3 8 4 3 5 3 5 5 6 6 5 7 9 11 11 10
6 6 7 10 9 9 8 7 6 4 4 5 6 6 6 9 9 10 9 8 6 6 8 6 7 8 5 4 2 7 10 5 2 5 3 2 4 5 8 6 9 8 7
10 9 7 9 7 3 8 6 4 7 6 7 7 5 3 4 6 8 8 7 6 6 8 8 7 8 5 5 5 4 4 5 7 5 4 4 4 7 8 2 8 9 10
11 9 12 10 6 5 3 5 5 6 6 5 5 4 4 5 5 8 8 9 9 9 9 7 8 9 7 6 5 5 5 4 3 3 3 4 3 1 14 9 6 8 9
Wind_Direction
230 180 184 147 116 122 117 114 110 111 109 107 106 102 100 103 103 105 107 111 115 119 114 113 107 101 94 92 91 92 92 93 96 93 91 90 90 93 113 117 101 96 97
165 181 178 159 136 120 116 113 116 114 112 110 107 102 103 99 107 106 109 110 115 116 114 108 112 110 103 100 105 108 108 106 107 109 105 94 88 86 84 84 89 98 100
176 155 161 153 130 125 122 120 122 116 113 114 112 106 103 108 110 115 115 116 115 115 113 113 112 112 119 115 111 117 119 106 96 75 119 110 99 92 92 95 103 104 103
144 146 140 145 128 132 125 130 129 125 120 121 118 116 110 106 106 110 116 116 118 113 113 115 119 121 118 114 115 115 119 126 109 153 143 133 101 104 106 107 110 109 109
143 134 123 129 133 134 132 139 133 130 122 110 113 103 98 96 92 95 110 112 121 121 120 120 123 116 109 110 108 113 133 137 144 178 188 158 106 116 122 121 125 128 120
125 115 127 133 137 135 138 135 131 119 122 120 95 83 73 74 70 72 100 108 121 121 126 124 128 122 115 114 118 134 9 339 319 134 155 129 115 138 140 147 113 111 115
116 127 132 136 136 136 134 128 125 121 113 104 97 96 84 70 54 69 73 99 119 115 124 133 135 131 138 136 134 155 300 323 343 53 99 114 131 140 137 128 128 124 125
145 138 135 131 135 137 132 131 128 120 122 115 108 102 87 76 59 34 43 85 90 109 122 127 133 150 147 157 168 194 235 307 44 343 110 126 146 144 145 140 139 135 135
140 137 136 140 139 139 138 138 130 125 120 123 118 114 117 104 78 46 4 358 31 116 142 146 161 171 193 205 207 214 224 248 256 225 245 139 156 152 154 153 151 149 151
153 144 150 141 152 154 153 144 132 132 137 130 130 127 123 110 84 256 337 330 302 206 176 181 199 204 217 227 224 219 221 233 244 187 229 194 170 159 158 165 169 166 164
146 144 147 154 157 160 142 140 143 138 135 135 138 136 144 143 198 228 263 278 283 284 263 229 227 225 237 242 242 237 252 360 334 203 321 182 168 163 165 171 181 177 178
142 152 149 157 168 165 156 154 151 145 161 141 145 133 151 168 197 222 242 271 269 269 265 252 238 237 245 249 223 225 110 336 303 297 174 180 171 167 169 180 183 189 188
163 143 166 131 168 136 132 168 159 159 135 136 167 141 181 173 219 241 261 275 344 277 256 243 232 235 239 241 238 164 154 171 247 212 164 191 169 175 177 184 189 193 199
160 174 137 149 109 138 147 144 159 158 159 168 168 180 180 213 201 221 231 232 255 261 238 248 254 272 273 281 286 199 181 201 147 211 196 196 178 183 185 193 198 199 205
162 158 154 134 127 142 104 44 325 157 163 203 176 189 215 223 227 212 227 224 229 260 272 238 245 214 258 270 270 289 274 200 39 57 258 192 195 193 188 194 201 205 207
167 168 156 162 137 182 138 147 194 169 188 186 209 187 204 249 269 276 271 243 232 252 275 286 276 277 252 280 244 217 265 222 207 189 174 195 198 203 207 194 200 205 212
179 165 160 169 158 169 183 149 164 181 168 201 218 189 212 222 239 229 241 260 282 250 249 271 274 263 254 267 267 247 241 234 204 215 186 211 203 201 210 221 200 205 212
325 155 169 184 164 171 193 163 171 168 200 213 193 209 211 241 250 238 230 250 236 242 239 239 257 263 244 250 254 270 246 231 244 186 219 163 115 270 218 223 228 212 208
189 220 176 185 174 164 181 170 172 195 204 232 221 197 201 207 225 242 234 242 237 225 227 246 236 255 252 241 233 239 260 261 261 205 176 203 183 199 180 217 211 219 218
175 159 186 163 169 160 159 169 223 155 222 244 217 243 204 219 215 214 245 231 227 224 215 223 218 272 268 284 257 252 263 254 235 214 200 214 217 192 192 210 203 217 215
159 163 172 187 165 159 176 179 184 225 201 214 235 226 216 216 224 210 235 258 203 195 234 297 222 229 266 260 325 308 282 275 257 212 228 226 206 210 195 180 175 230 214
165 164 169 177 163 186 195 197 192 177 225 216 209 227 219 212 226 228 234 248 218 201 211 220 197 219 248 225 247 266 307 302 265 246 230 227 226 189 208 168 184 206 202
192 157 163 172 172 185 209 217 166 177 240 247 222 224 223 220 209 202 243 230 249 243 221 213 213 206 219 198 202 231 243 244 331 249 254 218 255 166 191 190 196 206 207
165 157 157 157 165 183 195 232 178 231 237 239 239 209 206 203 210 199 201 244 224 228 237 219 219 219 174 222 203 235 257 289 320 318 332 285 307 218 212 198 213 208 193
158 177 145 135 138 202 183 225 253 220 231 236 244 268 220 213 225 214 200 208 234 237 241 233 235 208 197 208 197 221 245 253 231 220 282 305 325 8 321 213 214 213 195
191 151 126 109 117 142 209 209 226 276 284 291 308 309 259 228 222 228 221 211 216 228 243 231 232 234 218 230 213 213 212 219 221 212 251 285 277 313 258 259 235 210 202